Location: Casilda
(33.0440°S, 61.1680°W)
Time: 10:10:02
(UTC-03:00)

ISS - Pass Details

Date: 24 September 2023
Orbit: 413 x 421 km, 51.6° (Epoch: 26 September)

Event Time Altitude Azimuth Distance (km) Brightness Sun altitude
Exits shadow 04:54:48 18° 170° (S) 1,136 -1.3 -24.9°
Drops below altitude 10° 04:56:01 10° 156° (SSE) 1,532 -0.4 -24.7°
Sets 04:58:20 0° 143° (SE) 2,403 0.9 -24.2°
